星链-36694(STARLINK-36694)

导读

STARLINK-36694是美国SpaceX星链卫星互联网项目的一员,于2026年2月2日发射升空。星链计划旨在近地轨道构建包含数万颗卫星的巨型星座,为全球尤其是偏远欠发达区域提供高速、低价且稳定的宽带互联网接入服务,该卫星入轨进一步扩充了星链星座的在轨服务规模,持续推进全球网络覆盖的建设进程。

基本信息
目录编号:
67653
目录名称:
STARLINK-36694
国际标识:
2026-022F
轨道中心:
EARTH
卫星名称:
星链-36694
卫星全名:
星链-36694(STARLINK-36694)
卫星状态:
在轨 (已飞行131 天)
发射日期:
2026-02-02 UTC
国别 :
美国 (US)
星等 :
--
轨道信息
数据来源 国际轨道数据
星历时间: 2026-06-12T09:45:32+0800
1天前
查看轨道信息
半长轴: 6843.656km
偏心率: 0.0002009
轨道倾角: 97.283°
近地点辐角 98.595°
升交点赤经 196.022°
平近点角 261.552°
近地点: 464.144km
远地点: 466.894km
周期: 93.906分钟
每日圈数: 15.334532
详细信息
固有亮度:
5
最大亮度:
2.5
卫星平台:
Starlink V1.0
覆盖范围:
全球
运营商:
太空探索技术公司
运营商所在国:
美国
制造商(研发单位):
太空探索技术公司
制造商所在国:
美国
使用方式:
暂无
卫星简介
Starlink 计划是 SpaceX 推出的全球卫星互联网项目,通过发射低轨道卫星,为全球尤其是偏远地区提供高速、低延迟的互联网服务。自 2019 年起,Starlink 已部署数千颗卫星,旨在缩小全球数字鸿沟,推动互联网普及。该项目还为军事、航空等行业提供通信支持,带来广泛经济效益。
2D轨道图
3D轨道图
轨道高度分析图
轨道倾角分析图
轨道综合分析图
查看轨道综合分析图